EN

Hourly Weather Paez

Today, 9 March, Tuesday

Time Temperature Precipitation Wind Pressure Humidity
00:00 +20°C° 0 mm 1 mps 665 mmHg 87%
01:00 +20°C° 0 mm 1 mps 665 mmHg 86%
02:00 +20°C° 0 mm 1 mps 664 mmHg 85%
03:00 +20°C° 0 mm 1 mps 664 mmHg 84%
04:00 +19°C° 0 mm 1 mps 664 mmHg 83%
05:00 +20°C° 0 mm 1 mps 664 mmHg 81%
06:00 +20°C° 0 mm 1 mps 665 mmHg 79%
07:00 +20°C° 0 mm 1 mps 665 mmHg 77%
08:00 +23°C° 0 mm 1 mps 666 mmHg 68%
09:00 +26°C° 0 mm 2 mps 667 mmHg 59%
10:00 +29°C° 0 mm 2 mps 668 mmHg 50%
11:00 +29°C° 0 mm 2 mps 667 mmHg 51%
12:00 +29°C° 0 mm 2 mps 666 mmHg 52%
13:00 +29°C° 0 mm 2 mps 665 mmHg 53%
14:00 +28°C° 0.2 mm 2 mps 665 mmHg 57%
15:00 +27°C° 0.2 mm 1 mps 664 mmHg 61%
16:00 +27°C° 0.2 mm 1 mps 663 mmHg 65%
17:00 +25°C° 0.3 mm 1 mps 664 mmHg 71%
18:00 +24°C° 0.3 mm 1 mps 664 mmHg 77%
19:00 +21°C° 0.3 mm 0 mps 664 mmHg 82%
20:00 +21°C° 0.4 mm 0 mps 665 mmHg 85%
21:00 +20°C° 0.4 mm 0 mps 665 mmHg 87%
22:00 +20°C° 0.4 mm 0 mps 666 mmHg 89%
23:00 +20°C° 0.3 mm 0 mps 665 mmHg 89%

Tomorrow, 10 March, Wednesday

Time Temperature Precipitation Wind Pressure Humidity
00:00 +20°C° 0.3 mm 0 mps 665 mmHg 89%
01:00 +20°C° 0.3 mm 0 mps 665 mmHg 89%
02:00 +20°C° 0.2 mm 0 mps 664 mmHg 89%
03:00 +19°C° 0.2 mm 0 mps 664 mmHg 89%
04:00 +19°C° 0.2 mm 0 mps 664 mmHg 89%
05:00 +19°C° 0.1 mm 0 mps 664 mmHg 88%
06:00 +19°C° 0.1 mm 0 mps 665 mmHg 87%
07:00 +20°C° 0.1 mm 0 mps 665 mmHg 86%
08:00 +23°C° 0.2 mm 1 mps 666 mmHg 81%
09:00 +24°C° 0.2 mm 1 mps 666 mmHg 76%
10:00 +25°C° 0.2 mm 1 mps 667 mmHg 72%
11:00 +26°C° 0.2 mm 1 mps 666 mmHg 69%
12:00 +26°C° 0.2 mm 1 mps 665 mmHg 67%
13:00 +27°C° 0.2 mm 1 mps 664 mmHg 65%
14:00 +26°C° 0.3 mm 1 mps 664 mmHg 67%
15:00 +26°C° 0.3 mm 1 mps 663 mmHg 69%
16:00 +25°C° 0.3 mm 1 mps 663 mmHg 71%
17:00 +25°C° 0.2 mm 1 mps 663 mmHg 74%
18:00 +24°C° 0.2 mm 1 mps 663 mmHg 78%
19:00 +23°C° 0.2 mm 1 mps 664 mmHg 81%
20:00 +22°C° 0.9 mm 1 mps 664 mmHg 83%
21:00 +22°C° 0.9 mm 1 mps 665 mmHg 85%
22:00 +22°C° 0.9 mm 1 mps 665 mmHg 86%
23:00 +21°C° 0.6 mm 1 mps 665 mmHg 87%

Day after tomorrow, 11 March, Thursday

Time Temperature Precipitation Wind Pressure Humidity
00:00 +21°C° 0.6 mm 1 mps 665 mmHg 87%
01:00 +19°C° 0.6 mm 0 mps 665 mmHg 88%
02:00 +19°C° 0.1 mm 0 mps 665 mmHg 88%
03:00 +19°C° 0.1 mm 0 mps 664 mmHg 88%
04:00 +19°C° 0.1 mm 0 mps 664 mmHg 89%
05:00 +19°C° 0.1 mm 0 mps 665 mmHg 88%
06:00 +19°C° 0.1 mm 0 mps 665 mmHg 87%
07:00 +20°C° 0.1 mm 0 mps 666 mmHg 86%
08:00 +21°C° 0.2 mm 0 mps 666 mmHg 82%
09:00 +24°C° 0.2 mm 1 mps 667 mmHg 78%
10:00 +25°C° 0.2 mm 1 mps 667 mmHg 74%
11:00 +25°C° 0.5 mm 1 mps 666 mmHg 72%
12:00 +26°C° 0.5 mm 1 mps 666 mmHg 71%
13:00 +26°C° 0.5 mm 1 mps 665 mmHg 70%
14:00 +26°C° 0.4 mm 1 mps 664 mmHg 72%
15:00 +25°C° 0.4 mm 1 mps 664 mmHg 74%
16:00 +25°C° 0.4 mm 1 mps 663 mmHg 77%
17:00 +24°C° 0.4 mm 1 mps 663 mmHg 81%
18:00 +21°C° 0.4 mm 0 mps 663 mmHg 84%
19:00 +20°C° 0.4 mm 0 mps 664 mmHg 88%
20:00 +20°C° 0.5 mm 0 mps 664 mmHg 89%
21:00 +20°C° 0.5 mm 0 mps 665 mmHg 90%
22:00 +20°C° 0.5 mm 0 mps 665 mmHg 90%
23:00 +19°C° 0.9 mm 0 mps 665 mmHg 91%

12 March, Friday

Time Temperature Precipitation Wind Pressure Humidity
00:00 +19°C° 0.9 mm 0 mps 665 mmHg 92%
01:00 +19°C° 0.9 mm 0 mps 664 mmHg 93%
02:00 +19°C° 1 mm 0 mps 664 mmHg 93%
03:00 +19°C° 1 mm 0 mps 664 mmHg 93%
04:00 +21°C° 1 mm 1 mps 664 mmHg 93%
05:00 +21°C° 1.1 mm 1 mps 664 mmHg 92%
06:00 +21°C° 1.1 mm 1 mps 665 mmHg 91%
07:00 +21°C° 1.1 mm 1 mps 665 mmHg 89%
08:00 +20°C° 0.3 mm 0 mps 666 mmHg 86%
09:00 +21°C° 0.3 mm 0 mps 666 mmHg 82%
10:00 +22°C° 0.3 mm 0 mps 667 mmHg 79%
11:00 +23°C° 0.1 mm 0 mps 667 mmHg 73%
12:00 +26°C° 0.1 mm 1 mps 666 mmHg 68%
13:00 +27°C° 0.1 mm 1 mps 666 mmHg 63%
14:00 +27°C° 0.2 mm 1 mps 665 mmHg 64%
15:00 +26°C° 0.2 mm 1 mps 664 mmHg 64%
16:00 +26°C° 0.2 mm 1 mps 664 mmHg 65%
17:00 +25°C° 0.2 mm 1 mps 664 mmHg 71%
18:00 +22°C° 0.2 mm 0 mps 664 mmHg 77%
19:00 +20°C° 0.2 mm 0 mps 664 mmHg 82%
20:00 +20°C° 0.2 mm 0 mps 665 mmHg 83%
21:00 +22°C° 0.2 mm 1 mps 665 mmHg 83%
22:00 +22°C° 0.2 mm 1 mps 666 mmHg 83%
23:00 +22°C° 0.4 mm 1 mps 665 mmHg 84%

13 March, Saturday

Time Temperature Precipitation Wind Pressure Humidity
00:00 +22°C° 0.4 mm 1 mps 665 mmHg 84%
01:00 +22°C° 0.4 mm 1 mps 665 mmHg 84%
02:00 +22°C° 0.5 mm 1 mps 665 mmHg 84%
03:00 +21°C° 0.5 mm 1 mps 664 mmHg 85%
04:00 +19°C° 0.5 mm 0 mps 664 mmHg 85%
05:00 +19°C° 0.1 mm 0 mps 665 mmHg 85%
06:00 +19°C° 0.1 mm 0 mps 665 mmHg 85%
07:00 +19°C° 0.1 mm 0 mps 666 mmHg 85%
08:00 +23°C° 0.2 mm 1 mps 666 mmHg 80%
09:00 +24°C° 0.2 mm 1 mps 667 mmHg 75%
10:00 +26°C° 0.2 mm 1 mps 667 mmHg 70%
11:00 +26°C° 0.8 mm 1 mps 667 mmHg 72%
12:00 +26°C° 0.8 mm 1 mps 666 mmHg 73%
13:00 +26°C° 0.8 mm 2 mps 665 mmHg 75%
14:00 +25°C° 1 mm 1 mps 664 mmHg 78%
15:00 +25°C° 1 mm 1 mps 664 mmHg 81%
16:00 +24°C° 1 mm 1 mps 663 mmHg 85%
17:00 +23°C° 0.9 mm 1 mps 664 mmHg 87%
18:00 +21°C° 0.9 mm 0 mps 664 mmHg 90%
19:00 +20°C° 0.9 mm 0 mps 664 mmHg 93%
20:00 +20°C° 2.3 mm 0 mps 665 mmHg 94%
21:00 +19°C° 2.3 mm 0 mps 665 mmHg 95%
22:00 +19°C° 2.3 mm 0 mps 666 mmHg 97%
23:00 +19°C° 3.7 mm 0 mps 665 mmHg 96%

14 March, Sunday

Time Temperature Precipitation Wind Pressure Humidity
00:00 +19°C° 3.7 mm 0 mps 665 mmHg 96%
01:00 +19°C° 3.7 mm 0 mps 665 mmHg 96%
02:00 +19°C° 1 mm 0 mps 665 mmHg 96%
03:00 +21°C° 1 mm 1 mps 664 mmHg 95%
04:00 +21°C° 1 mm 1 mps 664 mmHg 94%
05:00 +21°C° 0.7 mm 1 mps 665 mmHg 93%
06:00 +21°C° 0.7 mm 1 mps 665 mmHg 93%
07:00 +21°C° 0.7 mm 1 mps 666 mmHg 92%
08:00 +21°C° 0.3 mm 1 mps 666 mmHg 90%
09:00 +20°C° 0.3 mm 0 mps 667 mmHg 88%
10:00 +21°C° 0.3 mm 0 mps 667 mmHg 85%
11:00 +23°C° 0.1 mm 0 mps 667 mmHg 77%
12:00 +27°C° 0.1 mm 1 mps 666 mmHg 69%
13:00 +28°C° 0.1 mm 1 mps 666 mmHg 61%
14:00 +27°C° 0.7 mm 1 mps 665 mmHg 67%
15:00 +26°C° 0.7 mm 1 mps 664 mmHg 73%
16:00 +25°C° 0.7 mm 1 mps 663 mmHg 80%
17:00 +24°C° 0.9 mm 1 mps 663 mmHg 84%
18:00 +21°C° 0.9 mm 0 mps 664 mmHg 89%
19:00 +20°C° 0.9 mm 0 mps 664 mmHg 93%
20:00 +20°C° 0.5 mm 0 mps 664 mmHg 94%
21:00 +20°C° 0.5 mm 0 mps 665 mmHg 94%
22:00 +20°C° 0.5 mm 0 mps 665 mmHg 95%
23:00 +20°C° 1.1 mm 0 mps 665 mmHg 94%
Show more

We Need Your Consent

Meteoprog and our Service Providers may store and access personal data such as cookies, device identifiers or other similar technologies on your device and process such data to personalise content and ads, as well as provide social media features and to analyse the traffic.

  • Store and/or access information on your device

    Cookies, device identifiers or other information can be stored or accessed on your device for the purposes indicated above.

  • Personalised ads and content, ad and content measurement, audience insights, and products development

    Ads and content can be personalised based on a profile. More data can be added to better personalise ads and content. Ad and content performance can be measured. Insights about the audience who saw the ads and content can be derived. Such data can be used to develop or improve user’s experience, systems and software.

By clicking ‘I Agree’ you will allow the use of indicated cookies, device identifiers, web beacons or other similar technologies. Your settings can be changed in the browser on your device.

For certain purposes, legitimate interests may be relied on, rather than consent. You can read more about this in our Privacy and Cookie Policy.